Weather History for New Castle, PA

Change the Weather History Date:

Wednesday, July 3, 2013

  Actual Average Record
Temperature  
Mean Temperature 75 °F -  
Max Temperature 86 °F 82 °F 99 °F (1966)
Min Temperature 64 °F 57 °F 44 °F (1988)
Cooling Degree Days 10    
Growing Degree Days 25 (Base 50)    
Moisture  
Dew Point 67 °F    
Average Humidity 86    
Maximum Humidity 100    
Minimum Humidity 53    
Precipitation  
Precipitation 0.09 in - - ()
Sea Level Pressure  
Sea Level Pressure 30.15 in    
Wind  
Wind Speed 1 mph (SSW)    
Max Wind Speed 8 mph    
Max Gust Speed -    
Visibility 6 miles    
Events Fog , Rain    
Averages and records for this station are not official NWS values.
T = Trace of Precipitation, MM = Missing Value Source: NWS Daily Summary

Daily Weather History Graph

Daily Weather History Graph

Search for Another Location

Airport:

Trip Planner

Search our weather history database for the weather conditions in past years. The results will help you decide how hot, cold, wet, or windy it might be!

Date:

Astronomy

Jul. 03, 2013 Rise Set
Actual Time 5:54 AM EDT 8:57 PM EDT
Civil Twilight 5:20 AM EDT 9:30 PM EDT
Nautical Twilight 4:38 AM EDT 10:13 PM EDT
Astronomical Twilight 3:48 AM EDT 11:02 PM EDT
Moon 2:32 AM EDT (7/3) 5:05 PM EDT (7/3)
Length of Visible Light 16h 09m
Length of Day
15h 02m
Waning Crescent, 18% of the Moon is Illuminated
Jul 3
Waning Crescent
Jul 8
New
Jul 15
First Quarter
Jul 22
Full
Jul 29
Last Quarter

Hourly Weather History & Observations

Time (EDT) Temp. Heat Index Dew Point Humidity Pressure Visibility Wind Dir Wind Speed Gust Speed Precip Events Conditions
12:56 AM 68.0 °F - 66.9 °F 96% 30.12 in 7.0 mi Calm Calm - N/A   Mostly Cloudy
1:56 AM 66.9 °F - 66.9 °F 100% 30.12 in 2.0 mi Calm Calm - N/A   Clear
2:04 AM 66.2 °F - 66.2 °F 100% 30.10 in 1.2 mi Calm Calm - N/A   Clear
2:17 AM 66.2 °F - 66.2 °F 100% 30.09 in 2.0 mi Calm Calm - N/A   Partly Cloudy
2:41 AM 66.2 °F - 66.2 °F 100% 30.09 in 4.0 mi Calm Calm - N/A   Mostly Cloudy
2:56 AM 66.9 °F - 66.9 °F 100% 30.12 in 3.0 mi Calm Calm - N/A   Mostly Cloudy
3:04 AM 66.2 °F - 66.2 °F 100% 30.09 in 2.0 mi Calm Calm - N/A   Mostly Cloudy
3:11 AM 66.2 °F - 66.2 °F 100% 30.09 in 1.2 mi Calm Calm - N/A   Mostly Cloudy
3:13 AM 66.2 °F - 66.2 °F 100% 30.09 in 0.8 mi Calm Calm - N/A   Mostly Cloudy
3:33 AM 66.2 °F - 66.2 °F 100% 30.10 in 0.5 mi Calm Calm - N/A Fog Fog
3:42 AM 66.2 °F - 66.2 °F 100% 30.10 in 1.0 mi Calm Calm - N/A   Clear
3:56 AM 64.9 °F - 64.9 °F 100% 30.12 in 0.5 mi Calm Calm - N/A Fog Fog
4:09 AM 66.2 °F - 66.2 °F 100% 30.10 in 1.0 mi Calm Calm - N/A   Mostly Cloudy
4:19 AM 66.2 °F - 66.2 °F 100% 30.10 in 1.2 mi Calm Calm - N/A   Mostly Cloudy
4:24 AM 66.2 °F - 66.2 °F 100% 30.10 in 2.0 mi Calm Calm - N/A   Partly Cloudy
4:34 AM 66.2 °F - 66.2 °F 100% 30.10 in 4.0 mi Calm Calm - N/A   Clear
4:56 AM 65.8 °F - 65.8 °F 100% 30.13 in 3.0 mi Calm Calm - N/A   Clear
5:56 AM 68.9 °F - 66.9 °F 93% 30.15 in 10.0 mi Calm Calm - N/A   Clear
6:56 AM 70.0 °F - 66.9 °F 90% 30.17 in 10.0 mi Calm Calm - N/A   Partly Cloudy
7:56 AM 72.9 °F - 68.0 °F 85% 30.19 in 10.0 mi Calm Calm - N/A   Scattered Clouds
8:56 AM 75.9 °F - 68.9 °F 79% 30.20 in 10.0 mi Variable 4.6 mph - N/A   Clear
9:56 AM 77.9 °F - 68.9 °F 74% 30.20 in 10.0 mi South 5.8 mph - N/A   Clear
10:56 AM 81.9 °F 85.6 °F 70.0 °F 67% 30.20 in 10.0 mi SSW 4.6 mph - N/A   Clear
11:56 AM 82.9 °F 86.3 °F 68.9 °F 62% 30.20 in 10.0 mi SSE 8.1 mph - N/A   Scattered Clouds
12:56 PM 84.9 °F 88.2 °F 68.0 °F 57% 30.20 in 10.0 mi Variable 5.8 mph - N/A   Scattered Clouds
1:56 PM 86.0 °F 88.8 °F 66.9 °F 53% 30.19 in 10.0 mi Variable 5.8 mph - N/A   Partly Cloudy
2:56 PM 86.0 °F 89.4 °F 68.0 °F 55% 30.18 in 10.0 mi South 8.1 mph - N/A   Partly Cloudy
3:56 PM 86.0 °F 89.4 °F 68.0 °F 55% 30.17 in 10.0 mi Variable 5.8 mph - N/A   Partly Cloudy
4:56 PM 84.2 °F 86.6 °F 66.2 °F 55% 30.14 in 10.0 mi Variable 4.6 mph - N/A   Scattered Clouds
5:56 PM 84.9 °F 88.8 °F 68.9 °F 59% 30.15 in 10.0 mi Calm Calm - N/A   Partly Cloudy
6:56 PM 82.9 °F 86.3 °F 68.9 °F 62% 30.16 in 10.0 mi Calm Calm - N/A   Mostly Cloudy
7:56 PM 79.9 °F - 68.9 °F 69% 30.17 in 10.0 mi South 5.8 mph - N/A   Scattered Clouds
8:56 PM 72.9 °F - 68.0 °F 85% 30.19 in 10.0 mi West 5.8 mph - 0.02 in   Clear
9:56 PM 70.0 °F - 66.9 °F 90% 30.22 in 4.0 mi Variable 5.8 mph - 0.03 in Rain Light Rain
10:56 PM 66.9 °F - 65.8 °F 96% 30.21 in 10.0 mi Variable 3.5 mph - 0.04 in   Clear
11:56 PM 66.9 °F - 65.8 °F 96% 30.20 in 10.0 mi Calm Calm - 0.00 in   Clear